#timestamp,LO_Frequency,Hit,StdDev 
1505833215.3,286047005.3,N
1505833235.1,286047001.8,N
1505833236.0,286047001.8,N
1505833255.8,286047002.8,N
1505833275.7,286047004.0,N
1505833295.5,286047001.7,N
1505833315.3,286047004.7,N
1505833335.2,286047003.0,N
1505833355.9,286047006.8,N
1505833375.7,286047005.2,N
1505833395.6,286047007.5,N
1505833415.4,286047006.8,N
1505833435.2,286047007.1,N
1505833455.0,286047003.9,N
1505833456.0,286047003.9,N
1505833475.8,286047004.1,N
1505833495.6,286047003.1,N
1505833515.4,286047006.0,N
1505833535.3,286047003.1,N
1505833555.1,286047007.4,Y
1505833575.8,286047001.3,P
1505833595.7,286047001.3,N
1505833615.5,286047001.0,N
1505833635.3,286047000.7,N
1505833655.2,286047004.3,Y
1505833675.0,286047003.6,P
1505833675.9,286047003.6,P
1505833695.7,286047003.6,P
1505833715.6,286047003.2,Y
1505833735.4,286046999.2,P
1505833755.2,286046997.5,N
1505833775.1,286046996.7,N
1505833776.0,286046996.7,N
1505833795.8,286046995.8,N
1505833815.6,286046997.0,N
1505833835.5,286046993.5,N
1505833855.3,286046994.8,N
1505833875.1,286046994.8,N
1505833895.9,286046995.1,N
1505833915.7,286046992.2,Y
1505833935.5,286046995.0,P
1505833955.4,286046997.6,N
1505833975.2,286046995.6,P
1505833995.0,286046998.0,N
1505833995.9,286046998.0,N
1505834015.8,286046995.5,Y
1505834035.6,286046999.4,P
1505834055.4,286047003.9,P
1505834075.3,286047003.5,N
1505834095.1,286047005.5,N
1505834115.8,286047004.0,N
1505834135.7,286047004.8,N
1505834155.5,286047005.4,N
1505834175.3,286047003.1,N
1505834195.2,286047000.5,N
1505834215.9,286046998.1,N
1505834235.7,286046999.6,N
1505834255.6,286046999.1,N
1505834275.4,286046997.2,N
1505834295.2,286046997.1,N
1505834315.0,286046997.6,N
1505834315.9,286046997.6,N
1505834335.8,286046996.8,N
1505834355.6,286047000.6,N
1505834375.4,286046998.5,N
1505834395.3,286046998.4,N
1505834415.1,286046998.9,N
1505834435.8,286046999.3,N
1505834455.7,286046999.0,N
1505834475.5,286046996.6,N
1505834495.3,286046996.3,N
1505834515.2,286046990.1,Y
1505834535.9,286046991.9,P
1505834555.7,286046995.9,N
1505834575.6,286046995.1,N
1505834595.4,286046995.1,N
1505834615.2,286046997.8,N
1505834635.1,286047001.1,N
1505834636.0,286047001.1,N
1505834655.8,286046997.1,N
1505834675.6,286046999.4,N
1505834695.4,286046998.3,N
1505834715.3,286046993.5,N
1505834735.1,286046992.3,N
1505834755.8,286046994.1,N
1505834775.7,286046994.6,N
1505834795.5,286046995.0,N
1505834815.3,286046998.9,N
1505834835.2,286046999.0,N
1505834855.9,286046996.7,N
1505834875.7,286046999.2,N
1505834895.6,286046996.4,N
1505834915.4,286046997.1,N
1505834935.2,286046997.1,N
1505834955.1,286046997.4,N
1505834956.0,286046997.4,N
1505834975.8,286046997.0,N
1505834995.6,286047000.4,N
1505835015.4,286046998.3,N
1505835035.3,286046996.5,N
1505835055.1,286046994.9,N
1505835075.8,286046997.4,N
1505835095.7,286046999.0,N
1505835115.5,286046996.4,N
1505835135.3,286046996.8,N
1505835155.2,286046998.5,N
1505835175.9,286047000.4,N
1505835195.7,286047001.1,N
1505835215.6,286047001.3,N
1505835235.4,286047004.2,N
1505835255.2,286047000.2,N
1505835275.1,286047002.5,N
1505835276.0,286047002.5,N
1505835295.8,286047000.4,N
1505835315.6,286047002.1,N
1505835335.5,286047001.2,N
1505835355.3,286047000.1,N
1505835375.1,286047002.1,N
1505835395.8,286047002.2,N
1505835415.7,286047000.3,N
1505835435.5,286047001.9,N
1505835455.3,286047000.4,N
1505835475.2,286046998.2,N
1505835495.9,286046998.1,N
1505835515.7,286046999.5,N
1505835535.6,286046998.4,N
1505835555.4,286047001.1,N
1505835575.2,286047000.2,N
1505835595.1,286047001.5,N
1505835596.0,286047001.5,N
1505835615.8,286047001.7,N
1505835635.6,286046998.2,N
1505835655.5,286046994.9,N
1505835675.3,286046999.5,N
1505835695.1,286047000.8,N
1505835715.8,286046998.2,N
1505835735.7,286047002.3,N
1505835755.5,286047001.0,N
1505835775.3,286046999.9,N
1505835795.2,286047003.1,N
1505835815.0,286047000.3,N
1505835815.9,286047000.3,N
1505835835.7,286047001.3,N
1505835855.6,286047002.6,N
1505835875.4,286047004.4,N
1505835895.2,286047003.1,N
1505835915.1,286047004.4,N
1505835916.0,286047004.4,N
1505835935.8,286047002.6,N
1505835955.6,286047003.6,N
1505835975.5,286047003.1,N
1505835995.3,286047002.5,N
1505836015.1,286047000.8,N
1505836035.9,286046998.1,N
1505836055.7,286046999.0,N
1505836075.5,286046996.7,N
1505836095.3,286046999.1,N
1505836115.2,286046997.7,N
1505836135.0,286046997.0,N
1505836135.9,286046997.0,N
1505836155.8,286046994.9,N
1505836175.6,286046999.0,N
1505836195.4,286046997.1,N
1505836215.3,286046999.8,N
1505836235.1,286047002.4,N
1505836236.0,286047002.4,N
1505836255.8,286047003.2,N
1505836275.6,286047003.1,N
1505836295.5,286047002.4,N
1505836315.3,286046999.6,N
1505836335.1,286046997.5,N
1505836355.9,286046997.2,N
1505836375.7,286046998.4,N
1505836395.5,286047000.5,N
1505836415.4,286047001.5,N
1505836435.2,286047002.9,N
1505836455.0,286047005.1,N
1505836455.9,286047005.1,N
1505836475.8,286047003.7,N
1505836495.6,286047004.0,N
1505836515.4,286047001.7,N
1505836535.3,286047001.7,N
1505836555.1,286047002.5,N
1505836556.0,286047002.5,N
1505836575.8,286047002.3,N
1505836595.7,286047000.9,N
1505836615.5,286047004.4,N
1505836635.3,286047003.4,N
1505836655.1,286047007.1,N
1505836675.9,286046999.9,N
1505836695.7,286047000.8,N
1505836715.5,286047002.6,N
1505836735.4,286047001.4,N
1505836755.2,286046998.3,N
1505836775.0,286047000.5,N
1505836775.9,286047000.5,N
1505836795.8,286046998.7,N
